Regional Weather Roundup
Issued by NWS

Home | Current Version | Previous Version | Text Only | Print | Product List | Glossary On
Versions: 1 2 3 4 5 6 7 8 9 10 11 12 13 14 15 16 17 18 19 20 21 22 23 24 25 26
000
ASCA42 TJSJ 262310
RWRPR
PUERTO RICO/U.S. VIRGIN ISLANDS HOURLY WEATHER ROUNDUP
NATIONAL WEATHER SERVICE SAN JUAN PR
700 PM AST THU MAY 26 2016

PRZ001-004-270000-
PUERTO RICO

CITY           SKY/WX    TMP DP  RH WIND       PRES   REMARKS
SAN JUAN LMM   MOCLDY    81  73  78 E14       29.96R
AGUADILLA      MOCLDY    81  72  74 E6        29.98R
CEIBA          CLEAR     79  72  78 E6        29.98R
$$

PRZ006-007-270000-
U.S. VIRGIN ISLANDS

CITY           SKY/WX    TMP DP  RH WIND       PRES   REMARKS
CHARLOTTE AMA  PTCLDY    82  72  69 E10       29.96R
CHRISTIANSTED  PTCLDY    79  72  78 NE6       29.97R
$$

HOURLY WEATHER ROUNDUP FOR THE NEWS MEDIA

CITY           SKY/WX    TMP DP  RH WIND       PRES   REMARKS
ORLANDO        PTSUNNY   83  61  47 NE13      30.07S
NEW YORK       PTSUNNY   74  52  46 S15       30.05S
NEWARK         PTSUNNY   86  47  25 SE10      30.02S
CHICAGO        PTSUNNY   82  64  54 SW6       29.81F
HARTFORD       MOSUNNY   71  58  63 SE9       30.05S
BOSTON         CLOUDY    63  56  78 NE12      30.05S
DALLAS         CLOUDY    79  67  66 SE24      29.78F
PHILADELPHIA   MOSUNNY   86  56  35 S12       30.02F
LOS ANGELES    MOSUNNY   65  54  67 W18       30.00F
WASHINGTON DC  PTSUNNY   85  62  46 S9        30.01S



USA.gov is the U.S. government's official web portal to all federal, state and local government web resources and services.